| time (UTC) | temp F | wind direction | speed knots | gust knots | rain 1hr in | rain 24hr in | rain mn in | humidity % | barometer mb |
| 20260504044552 | 36 | 0 | 0.0 | 0.0 | 0.00 | 0.00 | 0.00 | 62 | 1012.2 |
| 20260504043055 | 37 | 0 | 0.0 | 0.0 | 0.00 | 0.00 | 0.00 | 61 | 1012.0 |
| 20260504041553 | 37 | 0 | 0.0 | 0.0 | 0.00 | 0.00 | 0.00 | 61 | 1012.0 |
| 20260504040105 | 38 | 0 | 0.0 | 0.0 | 0.00 | 0.00 | 0.00 | 60 | 1012.0 |
| 20260504034558 | 38 | 0 | 0.0 | 0.0 | 0.00 | 0.00 | 0.00 | 58 | 1012.0 |
| 20260504033123 | 38 | 0 | 0.0 | 1.7 | 0.00 | 0.00 | 0.00 | 61 | 1012.0 |
| 20260504031551 | 38 | 0 | 0.0 | 0.0 | 0.00 | 0.00 | 0.00 | 59 | 1012.0 |
| 20260504030051 | 38 | 0 | 0.0 | 0.0 | 0.00 | 0.00 | 0.00 | 59 | 1012.0 |
| 20260504024550 | 39 | 0 | 0.0 | 0.0 | 0.00 | 0.00 | 0.00 | 57 | 1012.0 |
| 20260504023100 | 40 | 0 | 0.0 | 0.0 | 0.00 | 0.00 | 0.00 | 54 | 1012.1 |
| 20260504021553 | 41 | 0 | 0.0 | 0.0 | 0.00 | 0.00 | 0.00 | 51 | 1012.1 |
| 20260504020057 | 43 | 0 | 0.0 | 0.0 | 0.00 | 0.00 | 0.00 | 47 | 1012.0 |
| 20260504014550 | 45 | 0 | 0.0 | 0.9 | 0.00 | 0.00 | 0.00 | 44 | 1012.0 |
| 20260504013100 | 46 | 0 | 0.0 | 0.0 | 0.00 | 0.00 | 0.00 | 43 | 1012.0 |
| 20260504011551 | 48 | 58 | 0.0 | 0.9 | 0.00 | 0.00 | 0.00 | 40 | 1011.6 |
| 20260504010110 | 51 | 79 | 0.9 | 2.6 | 0.00 | 0.00 | 0.00 | 33 | 1011.7 |
| 20260504004603 | 52 | 0 | 0.9 | 3.5 | 0.00 | 0.00 | 0.00 | 30 | 1011.6 |
| 20260504003051 | 53 | 63 | 0.9 | 3.5 | 0.00 | 0.00 | 0.00 | 29 | 1011.2 |
| 20260504001546 | 54 | 119 | 1.7 | 7.0 | 0.00 | 0.00 | 0.00 | 28 | 1011.1 |
| 20260504000049 | 54 | 101 | 1.7 | 6.1 | 0.00 | 0.00 | 0.00 | 27 | 1011.1 |
| 20260503234551 | 55 | 267 | 1.7 | 8.7 | 0.00 | 0.00 | 0.00 | 26 | 1010.9 |
| 20260503233052 | 55 | 288 | 2.6 | 7.8 | 0.00 | 0.00 | 0.00 | 27 | 1010.9 |
| 20260503231547 | 56 | 77 | 1.7 | 5.2 | 0.00 | 0.00 | 0.00 | 28 | 1011.0 |
| 20260503230058 | 56 | 271 | 1.7 | 3.5 | 0.00 | 0.00 | 0.00 | 28 | 1010.9 |
| 20260503224550 | 55 | 30 | 1.7 | 7.0 | 0.00 | 0.00 | 0.00 | 29 | 1010.8 |
| 20260503223058 | 55 | 35 | 0.9 | 7.0 | 0.00 | 0.00 | 0.00 | 27 | 1010.8 |
| 20260503221551 | 56 | 303 | 2.6 | 8.7 | 0.00 | 0.00 | 0.00 | 27 | 1010.9 |
| 20260503220054 | 56 | 19 | 2.6 | 6.1 | 0.00 | 0.00 | 0.00 | 27 | 1010.9 |
| 20260503214553 | 56 | 64 | 2.6 | 7.0 | 0.00 | 0.00 | 0.00 | 28 | 1011.0 |
| 20260503213103 | 57 | 259 | 3.5 | 13.9 | 0.00 | 0.00 | 0.00 | 26 | 1010.8 |
| 20260503211551 | 56 | 315 | 2.6 | 8.7 | 0.00 | 0.00 | 0.00 | 26 | 1011.0 |
| 20260503210100 | 56 | 66 | 2.6 | 9.6 | 0.00 | 0.00 | 0.00 | 27 | 1010.8 |
| 20260503204553 | 56 | 129 | 5.2 | 10.4 | 0.00 | 0.00 | 0.00 | 27 | 1010.8 |
| 20260503203047 | 56 | 347 | 3.5 | 13.0 | 0.00 | 0.00 | 0.00 | 26 | 1011.0 |
| 20260503201546 | 56 | 328 | 5.2 | 20.9 | 0.00 | 0.00 | 0.00 | 24 | 1010.8 |
| 20260503200054 | 55 | 22 | 5.2 | 14.8 | 0.00 | 0.00 | 0.00 | 26 | 1011.0 |
| 20260503194550 | 55 | 54 | 3.5 | 10.4 | 0.00 | 0.00 | 0.00 | 24 | 1011.1 |
| 20260503193054 | 55 | 28 | 5.2 | 12.2 | 0.00 | 0.00 | 0.00 | 26 | 1011.3 |
| 20260503191550 | 56 | 16 | 3.5 | 8.7 | 0.00 | 0.00 | 0.00 | 23 | 1011.4 |
| 20260503190048 | 55 | 26 | 4.3 | 15.6 | 0.00 | 0.00 | 0.00 | 23 | 1011.6 |
| 20260503184559 | 54 | 295 | 3.5 | 7.8 | 0.00 | 0.00 | 0.00 | 23 | 1011.7 |
| 20260503183111 | 54 | 342 | 3.5 | 11.3 | 0.00 | 0.00 | 0.00 | 22 | 1011.9 |
| 20260503181550 | 55 | 13 | 0.9 | 12.2 | 0.00 | 0.00 | 0.00 | 25 | 1012.0 |
| 20260503180051 | 54 | 53 | 2.6 | 15.6 | 0.00 | 0.00 | 0.00 | 27 | 1012.2 |
| 20260503174550 | 53 | 13 | 6.1 | 16.5 | 0.00 | 0.00 | 0.00 | 25 | 1012.5 |
| 20260503173112 | 51 | 227 | 5.2 | 13.0 | 0.00 | 0.00 | 0.00 | 28 | 1012.7 |
| 20260503171550 | 50 | 70 | 4.3 | 12.2 | 0.00 | 0.00 | 0.00 | 27 | 1013.0 |
| 20260503120106 | 40 | 93 | 0.9 | 7.8 | 0.00 | 0.00 | 0.00 | 54 | 1014.3 |
| 20260503081550 | 36 | 0 | 0.0 | 4.3 | 0.00 | 0.00 | 0.00 | 59 | 1013.2 |
| 20260503071549 | 36 | 47 | 0.9 | 3.5 | 0.00 | 0.00 | 0.00 | 60 | 1013.0 |